Weather History for KCNY - April, 2013

Change the Weather History Date:

Friday, April 26, 2013

  Actual Average Record
Temperature  
Mean Temperature 55 °F 56 °F  
Max Temperature 73 °F 70 °F 91 °F (1992)
Min Temperature 37 °F 41 °F 32 °F (1935)
Degree Days  
Heating Degree Days 10 10  
Month to date heating degree days 406 341  
Since 1 July heating degree days 5914 5389  
Cooling Degree Days 0 0  
Month to date cooling degree days 0 0  
Year to date cooling degree days 0 0  
Growing Degree Days 6 (Base 50)    
Moisture  
Dew Point 10 °F    
Average Humidity 18    
Maximum Humidity 28    
Minimum Humidity 8    
Precipitation  
Precipitation 0.00 in 0.02 in 0.34 in (1951)
Month to date precipitation 0.42 0.59  
Year to date precipitation 1.11 2.52  
Sea Level Pressure  
Sea Level Pressure 30.04 in    
Wind  
Wind Speed 4 mph (WSW)    
Max Wind Speed 14 mph    
Max Gust Speed 18 mph    
Visibility 10 miles    
Events      
T = Trace of Precipitation, MM = Missing Value Source: NWS Daily Summary

Daily Weather History Graph

Daily Weather History Graph

Search for Another Location

Airport or City:

Trip Planner

Search our weather history database for the weather conditions in past years. The results will help you decide how hot, cold, wet, or windy it might be!

Date:

Astronomy

Apr. 26, 2013 Rise Set
Actual Time 6:27 AM MDT 8:06 PM MDT
Civil Twilight 5:59 AM MDT 8:35 PM MDT
Nautical Twilight 5:24 AM MDT 9:09 PM MDT
Astronomical Twilight 4:48 AM MDT 9:45 PM MDT
Moon 9:32 PM MDT (4/26) 6:58 AM MDT (4/26)
Length of Visible Light 14h 36m
Length of Day
13h 39m
Full, 99% of the Moon is Illuminated
Apr 26
Full
May 2
Last Quarter
May 9
New
May 17
First Quarter
May 24
Full

Hourly Weather History & Observations

Time (MDT) Temp. Dew Point Humidity Pressure Visibility Wind Dir Wind Speed Gust Speed Precip Events Conditions
12:53 AM 51.8 °F 10.4 °F 19% 30.00 in 10.0 mi ESE 6.9 mph - N/A   Clear
1:53 AM 48.9 °F 10.9 °F 22% 29.93 in 10.0 mi Calm Calm - N/A   Clear
2:53 AM 48.9 °F 12.0 °F 23% 29.93 in 10.0 mi West 8.1 mph - N/A   Partly Cloudy
3:53 AM 46.9 °F 12.0 °F 24% 29.95 in 10.0 mi West 4.6 mph - N/A   Clear
4:53 AM 45.0 °F 12.0 °F 26% 29.98 in 10.0 mi Calm Calm - N/A   Clear
5:53 AM 45.0 °F 12.0 °F 26% 30.00 in 10.0 mi Calm Calm - N/A   Clear
6:53 AM 41.0 °F 10.9 °F 29% 30.04 in 10.0 mi Calm Calm - N/A   Clear
7:53 AM 46.9 °F 14.0 °F 27% 30.07 in 10.0 mi Calm Calm - N/A   Clear
8:53 AM 55.0 °F 15.1 °F 21% 30.08 in 10.0 mi Calm Calm - N/A   Clear
9:53 AM 57.9 °F 12.0 °F 16% 30.08 in 10.0 mi Calm Calm - N/A   Clear
10:53 AM 64.0 °F 12.0 °F 13% 30.09 in 10.0 mi SE 6.9 mph - N/A   Clear
11:53 AM 64.0 °F 10.0 °F 12% 30.09 in 10.0 mi SE 4.6 mph - N/A   Clear
12:53 PM 66.9 °F 10.0 °F 11% 30.06 in 10.0 mi Calm Calm - N/A   Clear
1:53 PM 71.1 °F 9.0 °F 9% 30.06 in 10.0 mi WNW 8.1 mph - N/A   Clear
2:53 PM 70.0 °F 8.1 °F 9% 30.05 in 10.0 mi West 6.9 mph 18.4 mph N/A   Clear
3:53 PM 71.1 °F 6.1 °F 8% 30.05 in 10.0 mi WNW 9.2 mph - N/A   Clear
4:53 PM 72.0 °F 7.0 °F 8% 30.04 in 10.0 mi WNW 6.9 mph - N/A   Clear
5:53 PM 72.0 °F 7.0 °F 8% 30.04 in 10.0 mi WSW 5.8 mph - N/A   Clear
6:53 PM 70.0 °F 6.1 °F 8% 30.05 in 10.0 mi SW 8.1 mph - N/A   Clear
7:53 PM 64.9 °F 6.1 °F 10% 30.06 in 10.0 mi SW 4.6 mph - N/A   Clear
8:53 PM 57.9 °F 8.1 °F 14% 30.07 in 10.0 mi WSW 4.6 mph - N/A   Clear
9:53 PM 55.9 °F 9.0 °F 15% 30.09 in 10.0 mi WSW 5.8 mph - N/A   Clear
10:53 PM 55.9 °F 7.0 °F 14% 30.09 in 10.0 mi NW 8.1 mph - N/A   Clear
11:53 PM 53.1 °F 7.0 °F 16% 30.10 in 10.0 mi Calm Calm - N/A   Clear